Location: Unspecified
(32.1892°N, 0.0000°E)
Time: 03:30:38
(UTC+00:00)

Vanguard 2 - Visible Passes

Search period start: 04 April 2026 00:00
Search period end: 14 April 2026 00:00
Orbit: 554 x 2896 km, 32.9° (Epoch: 29 March)

Date Brightness Start Highest point End Pass type
(mag) Time Alt. Az. Time Alt. Az. Time Alt. Az.
4 Apr 9.9 20:01:41 10° W 20:12:44 66° SSW 20:21:32 32° SE visible
4 Apr 10.8 22:11:41 10° W 22:22:27 34° SW 22:22:27 34° SW visible
5 Apr 10.0 20:13:39 10° W 20:24:37 58° SSW 20:32:33 33° SE visible
5 Apr 11.0 22:24:22 10° W 22:33:29 27° SW 22:33:29 27° SW visible
6 Apr 10.2 20:25:42 10° W 20:36:29 49° SSW 20:43:38 32° SSE visible
6 Apr 11.2 22:37:32 10° W 22:44:34 20° SW 22:44:34 20° SW visible
7 Apr 9.5 18:29:15 10° W 18:37:50 74° SSW 18:52:10 10° ESE visible
7 Apr 10.4 20:37:52 10° W 20:48:20 41° SSW 20:54:45 30° SSE visible
7 Apr 11.5 22:51:35 10° WSW 22:55:41 14° SW 22:55:41 14° SW visible
8 Apr 9.6 18:41:09 10° W 18:49:44 65° SSW 19:03:53 10° ESE visible
8 Apr 10.6 20:50:12 10° W 21:00:12 33° SSW 21:05:56 26° S visible
9 Apr 9.8 18:53:06 10° W 19:01:37 55° SSW 19:15:25 10° SE visible
9 Apr 10.9 21:02:51 10° W 21:12:05 26° SSW 21:17:09 22° S visible
10 Apr 10.0 19:05:07 10° W 19:13:31 46° SSW 19:26:44 10° SE visible
10 Apr 11.1 21:15:58 10° WSW 21:24:00 20° SSW 21:28:25 17° SSW visible
11 Apr 10.3 19:17:16 10° W 19:25:25 37° SSW 19:37:46 10° SE visible
11 Apr 11.3 21:30:05 10° WSW 21:35:57 14° SW 21:39:44 13° SSW visible
12 Apr 10.5 19:29:37 10° W 19:37:20 30° SSW 19:48:31 10° SSE visible
13 Apr 10.8 19:42:17 10° WSW 19:49:17 23° SSW 19:58:49 10° SSE visible
